Theta_e
308 308 308 308 308 308 308 308 308 309 309 310 310 311 311 312 312 312 316 320 315 308 310 310 308 305 305 305 300 304 303 304 304 298 296 296 294 295 293 295 292 292 290 291 291 288 283 300 299 293 297 302 301 301
308 308 308 308 308 308 308 308 308 308 308 309 310 310 311 311 311 311 309 318 317 310 311 315 315 314 311 309 307 308 304 303 305 300 301 301 296 298 296 290 299 292 295 294 293 293 299 302 301 304 303 301 301 301
308 308 308 308 308 308 308 308 308 309 309 309 310 310 311 311 311 310 310 313 314 306 305 308 309 316 318 316 316 306 308 309 309 312 304 303 296 301 293 294 296 298 301 296 296 299 299 301 303 304 304 304 303 303
308 308 308 308 308 308 308 308 308 309 309 309 310 310 310 310 310 309 312 316 314 309 299 305 315 313 317 317 316 316 313 313 315 309 304 301 298 304 298 299 298 300 301 297 297 300 299 301 302 303 304 304 302 303
307 307 308 308 308 308 308 308 308 308 309 310 311 310 310 310 309 312 316 317 318 309 301 302 309 312 314 316 314 314 313 311 308 305 302 300 303 302 302 301 298 303 300 296 294 300 300 299 303 304 303 302 303 303
307 307 307 308 308 308 308 308 308 308 309 310 311 310 309 309 308 316 312 318 320 317 307 299 311 312 314 314 313 312 311 311 309 305 302 304 307 303 298 296 303 305 306 306 300 305 304 305 304 305 304 304 304 304
306 307 307 308 308 308 308 308 309 309 309 309 309 309 307 308 313 311 307 312 312 319 307 302 304 312 312 312 311 311 311 309 307 305 303 303 304 302 301 298 304 305 306 306 306 305 302 304 302 305 305 305 305 306
306 307 307 307 307 308 308 308 308 309 308 309 308 307 309 308 308 310 316 311 313 313 310 302 303 306 310 305 304 310 306 308 307 306 307 304 305 304 298 304 304 304 304 305 305 306 305 306 306 305 306 307 306 306
306 307 307 307 307 307 308 308 308 308 308 308 308 309 314 314 313 314 310 310 316 313 304 305 301 299 308 307 308 305 307 301 308 303 304 305 302 297 302 304 304 304 304 304 305 305 305 304 305 306 306 307 306 306
306 307 307 307 307 307 307 308 308 308 308 308 308 305 309 312 306 313 313 311 309 310 308 302 307 301 308 308 304 304 305 302 298 303 306 301 297 305 308 308 307 307 306 306 303 302 303 303 304 305 306 307 307 307
307 307 307 307 307 307 307 308 308 307 309 311 307 304 307 309 313 311 305 305 307 303 307 307 307 304 308 301 301 306 302 303 295 299 298 298 297 302 307 307 308 309 308 307 307 307 307 306 305 305 306 307 307 307
306 307 307 307 307 307 307 307 307 309 309 306 303 306 310 313 310 303 303 305 302 299 306 305 306 307 307 309 302 303 298 300 292 303 297 294 301 305 304 305 307 309 309 308 309 308 308 307 308 307 307 307 308 308
306 306 306 307 307 307 307 307 307 307 306 305 302 305 311 307 296 296 291 298 299 306 307 306 303 307 306 306 303 301 295 295 303 295 294 297 304 304 306 306 306 308 308 308 308 308 309 308 308 307 307 309 309 308
306 306 306 306 306 307 307 307 307 308 308 303 299 292 302 300 300 299 299 301 304 305 306 306 304 305 305 301 300 294 298 300 293 291 292 300 304 305 306 307 307 306 306 306 307 308 308 308 308 308 307 310 308 308
306 306 306 307 307 307 307 307 307 309 306 298 301 291 300 307 306 306 307 305 307 309 306 304 304 303 301 297 298 296 292 291 294 294 299 303 307 306 306 307 307 306 306 306 307 307 307 307 308 308 309 309 310 311
306 306 312 306 307 306 306 309 310 312 305 301 299 297 303 301 301 303 304 303 307 306 306 305 301 298 296 297 293 292 290 290 295 300 304 307 307 307 307 308 308 307 308 308 308 308 309 308 308 309 310 308 309 310
304 311 308 307 307 305 307 308 309 305 304 302 304 308 306 304 303 304 305 305 308 303 298 300 295 294 297 291 291 296 293 297 300 302 305 305 304 303 306 305 307 307 308 308 308 309 309 310 310 308 307 309 310 311
310 312 309 307 306 307 311 310 304 302 300 304 302 304 306 307 305 305 306 307 305 304 302 296 301 295 292 289 292 298 299 298 299 300 302 304 305 304 305 305 306 308 308 308 309 309 309 308 306 305 307 308 309 310
308 309 307 305 305 305 304 305 306 298 301 304 305 306 306 306 307 308 307 307 308 308 304 300 295 293 292 295 293 296 298 297 296 297 299 302 303 303 304 306 306 308 307 308 309 308 309 309 309 309 309 310 308 307
304 304 305 304 304 306 302 304 308 301 299 303 303 303 304 304 306 307 308 308 307 306 300 294 290 293 295 298 300 300 300 301 299 296 296 299 301 301 302 305 306 307 308 309 309 302 309 309 309 310 309 307 306 306
307 310 306 307 309 306 305 304 303 304 303 301 304 303 302 306 304 304 305 309 304 297 295 298 298 302 304 304 306 305 303 301 300 299 298 298 300 301 302 304 305 305 306 308 307 307 302 308 310 311 309 308 308 307
310 305 308 309 305 304 303 307 304 305 302 303 302 303 301 300 301 303 309 303 297 299 301 302 302 304 304 303 301 301 300 301 302 301 298 299 299 298 297 300 302 303 305 307 307 307 308 309 310 311 310 310 306 308
306 306 307 305 300 298 297 309 301 302 298 300 302 299 299 301 304 308 301 298 299 304 304 303 303 305 303 301 302 302 299 296 297 299 299 299 300 302 303 303 303 303 303 306 308 308 308 299 305 307 310 309 310 309
302 304 300 300 300 294 304 301 302 300 300 299 298 296 299 301 305 302 296 296 301 304 303 304 304 300 299 299 297 293 293 294 292 293 298 300 295 298 303 303 305 305 304 306 306 307 308 309 302 308 309 309 309 310
296 294 296 288 301 298 297 298 298 298 295 297 296 297 300 305 298 297 294 297 300 304 302 303 302 298 295 294 293 292 296 294 292 292 296 296 295 298 298 300 301 303 302 303 303 303 303 307 308 308 309 308 305 303
290 298 292 298 299 297 298 294 293 294 296 296 297 302 305 301 295 292 299 303 302 302 299 299 297 295 295 293 291 292 294 295 294 293 294 295 296 295 294 293 292 294 296 298 299 300 301 301 302 301 300 297 290 293
289 297 301 305 302 301 299 301 301 298 296 295 300 299 300 293 292 300 305 305 302 302 304 302 299 295 294 293 296 295 295 295 294 294 298 298 297 298 297 293 291 293 295 297 299 301 299 297 295 294 292 292 292 292
296 300 296 300 299 301 297 298 296 296 298 303 302 296 295 296 297 306 307 306 308 304 305 302 301 300 298 297 296 295 295 295 296 296 297 297 299 298 298 297 298 288 294 292 295 298 297 295 294 293 293 292 292 293
296 300 299 296 297 298 298 298 298 302 306 304 300 298 301 308 309 304 305 306 305 304 304 301 299 301 299 299 298 298 296 292 290 289 289 290 291 293 296 296 295 295 295 294 288 289 291 292 292 292 292 292 292 293
296 301 296 296 295 297 301 304 304 306 308 306 306 307 307 306 306 309 306 305 303 304 303 301 300 298 295 294 294 294 296 297 294 291 289 290 292 295 294 293 293 294 293 293 292 293 288 294 291 292 291 292 292 293
301 299 295 297 298 302 305 307 308 307 306 306 307 305 305 305 305 305 305 306 304 302 300 298 297 297 296 295 294 293 292 295 297 295 295 295 295 295 295 295 296 297 296 296 296 295 294 293 292 291 291 290 290 289
299 298 297 296 299 306 307 305 305 304 304 303 303 306 303 303 300 301 304 304 302 300 291 297 296 295 297 296 296 295 287 294 294 294 295 295 295 296 296 296 295 295 294 293 293 292 292 291 291 290 290 289 289 288
300 301 300 299 299 300 304 304 302 301 302 302 302 304 303 302 300 304 306 306 304 302 299 299 298 298 297 296 295 295 292 294 288 283 284 283 283 287 294 294 294 293 293 292 291 291 290 290 289 289 288 288 288 287
Wind_Speed
18 19 19 20 20 21 20 20 20 20 20 21 20 19 18 16 15 9 2 4 5 3 6 7 5 4 4 4 4 5 6 5 3 4 4 3 4 4 5 7 7 6 6 4 6 2 3 12 4 4 4 2 3 5
18 19 19 20 20 20 20 20 20 20 20 20 20 19 17 15 13 10 4 1 3 6 6 3 7 7 6 3 4 4 4 2 4 6 2 2 5 3 6 5 3 3 5 5 3 4 2 3 3 2 2 3 3 4
18 19 20 20 21 21 21 21 21 21 21 21 20 19 17 14 10 6 5 3 4 5 6 7 9 12 10 9 6 5 4 1 4 4 6 4 6 4 6 6 5 4 5 7 5 6 6 3 3 3 4 5 2 3
18 19 20 21 22 22 22 22 22 22 22 21 21 19 17 13 9 6 4 1 4 4 5 3 3 5 4 9 11 10 7 3 0 4 6 7 7 4 7 6 9 7 3 7 8 8 4 8 6 4 6 3 2 3
17 19 20 21 22 23 23 22 22 23 24 22 22 20 17 13 9 7 5 4 2 5 5 5 2 7 7 9 10 8 8 7 5 5 6 9 7 4 8 6 9 7 8 6 5 4 6 1 5 8 7 6 5 5
17 19 20 21 22 23 23 24 24 25 27 24 23 21 16 11 7 5 5 5 4 3 4 4 3 5 7 7 9 10 8 7 6 5 8 5 2 6 6 9 10 7 9 8 7 1 6 1 4 8 8 6 7 6
17 18 20 21 22 23 23 25 25 28 30 27 25 22 15 7 6 4 5 5 1 3 4 4 3 5 3 4 4 4 4 5 5 6 6 8 5 5 7 10 13 7 7 8 6 5 7 9 7 9 8 7 6 8
17 19 20 21 22 23 24 25 25 28 32 30 24 17 6 9 4 4 4 3 3 4 4 4 3 4 4 5 4 1 4 4 6 4 2 6 4 5 5 9 5 2 5 7 7 9 4 4 8 7 7 8 8 9
18 19 21 22 23 23 24 25 25 28 32 31 20 4 4 4 3 4 10 4 4 5 4 3 4 3 4 3 2 4 3 4 2 4 3 3 4 6 9 8 5 4 7 8 9 10 10 9 9 8 8 9 9 8
18 20 21 22 23 24 23 23 25 28 34 27 7 4 3 4 7 5 4 5 5 5 5 7 4 7 3 1 4 3 2 3 4 2 2 4 5 13 9 8 8 9 9 10 10 12 12 12 11 10 9 9 8 8
19 20 22 23 24 24 22 20 20 28 13 6 6 3 7 6 5 4 3 4 3 4 5 4 5 7 4 5 6 0 3 2 4 4 4 3 4 6 7 7 7 7 8 12 13 12 12 10 10 8 8 9 8 9
19 21 23 23 24 23 21 18 20 12 7 8 7 7 5 4 3 4 2 2 5 3 2 4 2 3 2 2 4 3 3 2 5 1 4 3 4 6 6 7 7 7 7 9 11 14 16 16 13 10 9 8 9 10
19 21 24 24 24 23 19 22 17 17 11 2 4 4 2 1 3 2 2 2 3 2 1 4 5 2 4 2 2 3 6 4 1 4 4 6 3 6 6 6 7 7 7 10 12 12 12 12 14 9 11 10 10 11
19 22 25 24 24 17 26 23 21 9 4 4 3 6 2 1 2 3 5 7 6 6 8 7 6 3 2 2 2 6 3 2 5 4 5 4 7 6 6 7 8 10 11 11 11 11 12 12 12 14 14 13 11 11
19 24 27 18 12 26 29 26 15 4 4 4 2 3 3 3 6 7 6 7 8 6 7 6 4 4 3 3 3 4 4 6 5 4 4 7 4 7 7 8 10 9 9 9 10 11 11 12 11 13 13 8 13 11
18 24 2 10 23 29 31 18 3 3 3 3 4 4 3 6 8 8 8 8 7 5 5 4 5 3 4 2 4 7 4 5 3 5 5 7 12 16 16 12 11 10 9 9 9 9 10 12 11 13 14 16 14 13
16 5 14 21 25 30 16 4 3 5 4 4 4 4 6 7 8 8 8 8 6 5 5 4 5 3 2 3 4 3 5 5 7 11 13 15 14 14 13 16 14 11 11 8 8 9 10 10 12 12 11 9 11 10
6 12 19 22 20 12 3 3 4 4 5 4 4 3 3 6 8 8 5 4 3 2 3 2 6 4 4 4 3 4 7 9 10 11 13 14 12 11 9 13 12 12 10 7 8 8 9 7 7 8 11 8 8 9
14 17 24 21 8 5 5 2 3 5 4 4 5 5 4 7 6 6 5 4 2 4 4 2 4 4 5 6 10 10 7 8 9 10 11 14 12 9 9 10 9 11 8 7 8 7 4 5 6 4 4 4 5 7
22 20 15 9 7 4 5 3 2 5 4 4 5 5 5 6 6 6 4 3 3 1 5 4 2 4 5 7 7 9 10 9 5 8 10 8 7 10 10 10 7 8 8 7 6 5 6 6 7 6 7 8 5 5
9 3 6 3 3 5 5 4 4 3 5 4 6 5 6 4 5 6 4 3 5 4 2 1 3 5 8 7 7 8 9 10 9 9 11 9 7 7 9 8 9 8 8 6 5 3 6 6 7 6 6 9 7 2
5 4 5 1 4 3 5 4 5 5 4 5 5 3 5 5 6 5 1 6 3 2 2 4 6 9 11 12 7 7 12 16 12 9 9 10 7 5 6 8 7 6 8 5 5 5 4 5 4 5 7 8 7 8
6 4 4 4 4 3 6 2 5 3 4 3 4 4 4 4 4 1 5 3 1 2 3 4 8 11 11 12 12 14 17 17 12 12 9 9 9 7 5 5 7 8 9 9 8 7 6 4 3 5 3 5 5 5
3 4 5 3 5 5 3 4 3 4 3 3 4 9 6 5 4 4 4 0 3 4 4 10 9 9 9 11 10 10 10 9 11 11 12 10 9 10 8 7 6 6 8 7 7 8 7 6 5 5 5 5 4 1
4 4 4 5 4 5 5 4 4 3 5 6 9 5 3 3 2 4 1 1 4 3 5 7 8 7 7 8 9 9 12 8 9 10 9 9 9 9 9 11 11 11 12 10 8 9 9 10 5 5 2 3 9 13
5 5 6 3 3 5 3 4 4 4 7 5 3 3 2 3 3 1 2 1 3 4 5 6 7 7 7 7 9 9 10 9 8 8 8 9 8 8 8 9 9 9 9 8 8 9 7 8 9 12 14 17 14 16
5 6 5 3 4 4 5 5 6 5 5 3 3 4 3 2 1 2 2 2 0 2 2 4 5 5 5 6 7 9 9 9 8 6 4 6 7 8 8 8 10 9 10 12 11 10 11 13 14 14 14 13 10 11
7 5 8 4 5 5 7 5 4 5 4 2 2 2 2 2 3 2 2 3 2 1 1 1 1 2 4 5 5 7 8 9 7 7 2 5 8 9 10 8 9 9 12 14 13 13 13 13 13 13 13 12 11 11
5 5 4 10 8 6 6 6 4 4 3 3 3 4 4 1 2 4 4 4 4 4 1 1 3 3 2 3 5 5 7 7 9 11 13 9 7 9 10 9 8 8 8 11 17 15 18 14 14 13 15 12 11 11
6 7 5 6 6 7 5 7 5 5 3 5 5 3 4 3 3 3 5 5 4 2 1 3 3 3 4 5 5 7 7 7 6 5 5 7 7 8 9 9 8 7 8 9 9 9 8 13 13 13 12 9 10 11
4 7 5 7 6 6 7 6 6 6 7 7 6 7 6 4 4 4 5 4 4 4 4 4 4 4 4 5 5 5 7 8 9 9 6 5 5 5 6 6 6 6 8 9 10 11 12 12 12 13 14 15 14 13
8 10 6 6 5 3 3 5 6 6 5 5 5 2 2 4 4 5 5 7 6 5 2 3 5 5 4 5 5 6 2 7 8 8 10 7 7 8 8 8 8 9 10 11 11 11 13 13 11 12 12 15 14 14
9 7 8 6 5 5 4 4 4 3 4 3 4 5 5 4 3 4 5 6 5 5 6 6 6 6 7 6 5 5 5 8 8 6 6 8 10 10 6 7 8 8 10 10 10 11 12 13 12 12 12 12 12 11
Wind_Direction
353 351 352 351 350 351 349 344 342 342 344 345 348 348 348 346 351 338 27 10 311 289 147 208 186 184 180 242 308 76 223 167 299 328 327 32 298 24 272 320 323 312 328 9 322 354 289 12 342 9 35 109 327 3
350 349 348 347 346 345 343 339 337 337 338 339 339 342 342 339 337 330 277 70 315 267 24 250 239 243 250 287 298 169 6 285 5 303 301 301 283 211 297 309 175 285 340 312 282 281 21 310 342 105 323 334 10 356
347 346 345 342 341 340 340 339 335 331 329 331 332 333 334 331 328 325 305 328 249 269 221 219 221 207 224 229 231 284 164 54 202 320 317 301 280 276 285 290 287 205 193 254 297 159 243 236 206 219 222 287 332 57
343 343 341 339 338 338 339 338 334 327 323 326 326 326 326 322 313 293 277 3 268 296 282 135 124 207 197 207 213 231 290 102 358 235 265 274 267 241 277 290 280 297 164 269 266 247 233 217 228 209 187 217 190 151
339 340 338 336 337 338 337 334 329 321 324 326 324 324 322 316 302 269 262 229 254 304 323 309 250 224 208 205 214 210 219 229 227 229 239 265 264 290 260 293 269 243 258 261 292 53 259 182 204 196 208 197 188 183
334 335 334 334 335 335 334 332 325 325 325 328 326 323 315 302 282 244 212 171 192 263 285 282 83 202 183 206 219 219 222 231 248 265 286 267 79 266 264 272 288 250 247 253 265 337 272 228 217 202 209 206 200 220
329 331 329 332 331 330 333 329 325 328 325 329 326 321 312 252 223 269 1 37 334 239 254 270 236 140 207 203 207 208 196 226 256 261 256 270 225 214 267 269 287 277 241 229 239 247 229 215 204 200 208 209 203 248
326 327 326 328 327 328 329 327 323 327 324 325 327 323 357 151 266 201 117 346 272 264 250 268 255 228 175 228 238 190 224 209 200 277 222 243 134 235 250 242 257 270 248 211 216 209 292 182 207 215 221 241 250 250
323 325 325 325 325 327 328 325 322 323 320 320 321 208 208 226 209 61 339 262 212 291 287 237 272 315 168 239 283 198 262 249 90 246 221 243 227 222 241 254 260 243 222 219 204 201 210 219 228 235 236 243 254 262
323 325 323 323 324 326 328 324 322 324 317 309 276 254 189 53 341 238 183 196 194 192 224 258 280 268 251 285 295 286 190 262 261 155 131 234 244 239 251 257 270 257 239 221 216 211 221 230 238 243 236 243 252 257
321 321 321 323 323 324 325 322 327 326 297 347 339 322 343 309 236 219 235 235 155 225 204 246 278 281 125 287 313 332 301 271 265 118 257 224 248 207 187 228 242 235 234 231 234 245 237 247 235 250 241 236 238 225
318 320 318 321 320 319 318 325 336 327 334 330 303 293 278 249 221 259 248 196 232 292 160 277 350 282 102 269 268 171 257 233 256 83 252 255 246 181 198 233 241 240 244 249 252 252 253 242 248 253 249 249 228 222
317 317 314 318 318 313 318 331 329 305 290 182 214 243 293 170 1 266 289 240 268 300 12 301 276 252 166 213 282 271 236 231 116 232 249 230 145 198 227 235 237 230 255 266 267 264 258 252 233 234 266 238 234 220
315 313 311 317 311 306 326 331 333 319 251 269 312 327 299 272 257 286 301 307 317 293 313 312 286 263 130 169 231 257 286 250 237 229 239 258 200 233 236 236 249 253 259 260 265 267 262 254 237 217 224 255 226 223
314 311 309 300 320 327 324 328 316 233 270 272 270 263 247 320 286 291 304 290 290 292 300 286 243 245 176 181 237 254 248 248 231 229 246 2 282 289 286 264 253 249 256 266 267 266 261 260 255 248 228 242 237 233
318 304 283 345 333 323 320 316 222 238 238 249 234 258 254 279 307 320 314 311 327 316 296 253 259 265 239 188 230 218 248 241 283 296 340 343 343 329 313 296 277 269 265 270 273 264 267 262 256 248 232 215 235 231
305 253 344 330 326 315 311 275 263 240 268 239 231 242 278 293 297 306 315 318 349 292 289 294 261 241 104 244 261 268 239 318 331 321 313 313 304 306 296 296 277 263 256 264 264 268 272 277 274 243 220 212 231 221
266 313 314 321 332 299 273 264 283 281 265 256 269 328 307 289 293 302 308 335 293 304 304 280 306 243 236 237 253 343 341 330 315 304 293 289 289 280 275 275 263 255 246 253 257 269 282 267 242 218 224 259 252 232
296 297 302 308 312 305 297 288 297 284 282 314 290 284 292 299 292 289 302 316 271 314 304 10 297 345 354 356 327 317 322 325 321 328 318 314 293 290 289 289 265 252 241 249 257 263 267 234 258 201 184 272 236 243
286 283 282 290 245 255 267 236 270 276 286 342 284 285 300 293 304 308 325 24 345 9 45 43 360 289 287 298 319 322 319 316 307 322 321 323 337 334 343 331 326 311 278 256 248 238 256 254 249 226 218 215 225 261
287 16 318 238 219 240 284 299 254 266 304 282 311 309 296 294 290 342 34 14 62 39 342 263 293 310 309 312 322 331 4 348 353 334 335 324 326 325 346 351 345 315 296 296 279 267 213 258 264 254 231 211 231 155
270 334 281 173 267 237 261 237 283 321 270 290 298 276 280 303 342 35 85 59 50 326 310 313 340 328 343 353 9 11 352 351 342 336 331 324 332 11 340 325 321 315 300 306 320 324 309 298 300 239 246 238 211 227
278 213 228 246 267 242 263 246 258 240 265 287 297 280 294 317 20 245 84 66 267 274 330 321 327 319 352 358 347 5 9 347 335 337 336 337 339 337 321 334 333 341 358 3 350 333 333 346 271 265 253 240 215 217
140 249 254 252 225 263 277 241 223 258 260 258 286 301 312 349 325 65 76 215 304 355 358 346 345 359 352 351 2 354 349 338 340 338 328 3 345 338 339 349 346 359 0 358 356 341 327 310 300 257 242 237 249 107
267 253 183 262 244 246 247 247 238 247 263 307 308 273 346 315 322 74 68 313 307 0 347 338 356 10 350 349 351 349 353 343 337 337 344 352 338 347 358 358 359 5 2 334 1 350 349 333 346 356 345 48 90 85
252 211 196 236 218 234 256 265 240 292 303 287 264 316 308 316 39 139 237 304 329 3 341 350 356 350 0 4 345 351 348 346 339 344 347 340 356 350 4 1 355 354 350 338 345 344 6 7 36 65 74 61 60 91
244 250 199 226 279 273 269 255 266 271 263 254 270 309 318 296 59 236 163 153 266 192 293 344 12 357 354 351 4 4 354 348 352 332 359 352 7 7 14 15 14 353 357 358 2 17 65 64 62 60 65 68 68 82
236 276 241 241 231 252 272 274 256 241 235 218 248 245 269 194 235 104 153 163 156 173 280 92 207 304 3 16 24 7 12 0 5 31 345 5 29 24 18 15 16 15 34 26 25 45 60 67 74 78 79 84 83 81
228 226 255 255 255 246 235 231 239 230 232 225 262 279 242 187 93 141 165 180 153 207 229 17 55 37 16 39 41 44 51 20 8 21 24 19 6 14 17 25 24 30 37 50 46 51 60 63 69 72 73 75 79 80
232 207 225 233 226 226 225 205 234 246 245 274 295 268 205 142 169 172 165 179 198 198 118 84 69 42 37 16 41 46 45 53 44 16 1 13 21 21 24 27 32 41 55 57 62 69 73 81 81 78 79 84 87 87
188 181 213 239 252 248 251 250 257 261 263 262 251 259 293 113 158 194 213 192 179 171 173 138 114 77 64 49 35 30 47 37 40 37 31 33 39 46 49 48 57 62 68 68 66 69 77 78 79 80 80 82 81 80
194 198 211 233 249 244 245 247 255 252 242 230 220 192 181 203 227 178 199 189 190 173 116 167 143 112 94 88 81 94 342 47 35 29 23 28 50 53 54 59 61 63 66 68 69 73 75 77 81 83 83 82 80 78
209 211 222 258 253 240 188 225 230 252 227 238 225 212 203 236 252 129 166 198 197 163 161 146 130 123 108 89 90 111 98 78 73 47 36 29 15 359 48 62 61 64 69 70 72 75 75 78 77 78 78 78 77 75